SCP
0 0 0 0 0 0 0 0 0 0 0 1 2 3 3 3 4 3 3 3 4 4 5 5 6 6 6 5 5 5 6 7 9 11 12 12 10 7 5 6 6 7 7 7
0 0 0 0 0 0 0 0 0 0 1 1 2 3 4 4 4 4 3 3 3 4 4 5 6 6 6 6 6 8 8 9 11 13 13 11 8 6 5 5 6 7 7 6
0 0 0 0 1 0 0 0 1 1 1 2 3 4 4 4 5 5 4 3 3 4 4 5 6 7 7 8 10 10 10 10 10 11 10 8 6 5 5 5 6 6 6 6
0 0 0 1 1 1 1 1 1 1 2 3 4 4 4 4 5 5 5 5 5 5 5 6 7 8 9 10 11 11 10 8 8 8 7 7 6 6 6 5 5 6 6 6
0 0 0 1 1 1 1 1 1 2 2 3 3 3 3 3 3 5 5 6 6 6 5 6 7 9 10 11 11 10 9 8 8 7 8 8 8 7 6 6 6 6 6 6
0 0 0 1 1 1 1 1 2 2 2 3 3 3 2 2 3 4 5 6 7 7 6 6 7 8 9 10 10 10 10 9 8 8 8 9 9 8 8 8 7 7 6 7
0 0 1 2 2 2 2 2 3 2 2 3 3 3 3 3 3 3 4 6 7 7 5 4 5 5 7 8 9 9 10 10 9 7 7 7 7 8 9 10 9 8 7 6
0 0 1 2 2 3 3 4 3 3 2 3 3 3 3 3 3 3 4 5 6 7 5 3 3 4 5 6 7 7 10 11 10 8 7 7 8 9 11 12 10 8 7 6
1 1 1 1 1 2 3 3 3 2 2 3 3 3 3 3 3 3 3 4 6 7 5 3 3 3 4 5 5 5 7 11 12 10 9 10 10 10 10 11 10 9 7 7
1 1 1 1 1 1 2 2 2 2 3 3 2 2 2 3 2 2 3 4 7 9 8 4 3 3 4 4 4 4 5 9 12 10 9 9 9 8 8 8 9 8 8 8
1 1 1 1 1 1 2 3 3 3 3 3 2 2 2 2 2 2 2 4 8 12 9 5 4 4 4 4 4 3 4 7 11 11 9 8 7 6 6 6 6 6 7 8
1 1 1 1 2 2 3 3 3 3 3 2 2 3 3 2 2 2 2 4 9 12 9 6 5 5 5 4 3 3 3 5 9 12 11 9 7 6 6 5 4 4 5 6
1 1 1 1 1 2 2 2 2 2 2 2 2 3 3 3 3 3 2 4 9 11 9 7 6 6 5 5 4 3 3 4 7 11 13 12 9 8 7 5 4 3 3 3
1 1 1 1 1 1 2 2 2 2 2 2 2 3 3 3 3 3 2 4 7 9 10 9 8 7 6 5 4 3 3 3 5 9 13 13 12 10 9 8 6 4 3 2
1 1 1 1 1 1 1 1 2 2 2 2 2 2 3 3 3 3 2 3 5 8 10 10 10 9 8 7 5 4 3 3 4 7 11 13 12 11 10 9 8 6 4 3
1 1 1 1 1 1 1 1 1 1 1 2 2 2 2 3 3 2 2 3 5 7 8 9 10 10 9 8 7 5 3 3 4 6 10 14 14 11 10 9 8 7 5 4
1 1 1 1 1 1 1 1 1 1 1 1 2 2 2 2 2 2 1 3 5 7 7 7 8 8 9 9 8 7 6 6 6 7 10 15 16 14 12 10 8 7 6 5
1 1 1 1 1 1 1 1 1 1 1 1 2 2 2 2 1 1 1 3 5 6 6 6 5 6 7 8 8 7 7 7 7 7 9 15 18 18 16 13 10 8 7 5
1 1 1 1 1 1 1 1 1 1 1 1 2 2 2 2 1 1 1 2 4 5 4 3 3 4 5 5 5 5 5 5 5 4 7 13 17 18 18 16 14 10 7 5
1 1 1 1 1 0 0 0 0 0 0 1 1 1 1 2 2 2 1 1 2 2 2 2 2 2 2 2 2 2 2 2 2 2 5 9 13 14 14 14 13 9 5 3
1 1 1 1 1 1 1 0 0 0 0 0 1 1 1 2 2 2 2 1 1 1 1 1 1 1 1 1 1 1 1 1 1 2 4 7 8 9 10 9 7 6 3 2
1 1 1 1 1 1 1 1 0 0 0 0 1 1 1 2 2 2 2 1 1 1 1 0 0 0 0 1 1 1 1 1 2 3 5 7 7 8 8 6 4 3 2 2
2 2 2 1 1 1 1 1 1 0 0 1 1 1 1 2 2 2 2 1 1 0 0 0 0 0 0 0 1 1 1 1 2 3 6 8 8 7 6 5 3 2 2 1
2 2 2 2 2 1 1 1 1 1 1 1 1 1 1 2 2 1 1 1 1 0 0 0 0 0 0 0 1 1 1 1 2 3 5 7 6 4 3 3 3 2 2 1
2 2 2 2 1 1 1 1 1 1 1 1 1 1 1 1 1 1 1 1 1 0 0 0 0 0 0 0 0 1 1 1 1 3 4 4 3 2 3 3 2 2 1 1
2 2 2 1 1 1 1 1 1 1 1 1 1 1 1 1 1 1 1 1 1 1 1 1 0 0 0 0 0 0 1 1 1 1 2 2 2 2 2 2 2 2 1 1
1 2 2 1 1 1 1 1 1 1 1 1 1 1 1 1 1 1 1 1 1 1 1 1 1 0 0 0 0 0 0 0 1 1 1 1 2 2 2 2 2 1 1 1
Wind_Speed
11 9 10 12 12 13 15 15 16 14 13 9 6 5 4 4 4 3 3 3 4 4 5 6 6 7 7 8 8 9 10 10 10 9 9 8 8 8 8 8 8 7 7 7
11 10 12 14 14 14 15 15 16 15 13 7 4 4 3 4 4 5 4 4 4 5 6 6 6 7 7 7 8 8 9 9 9 9 9 8 8 8 8 8 8 7 8 7
11 8 10 14 12 12 13 12 13 13 8 5 4 4 4 4 4 4 4 4 4 4 5 5 6 6 6 6 7 8 8 8 9 9 8 8 8 8 8 8 7 8 8 8
9 8 14 5 1 6 9 9 8 8 6 4 4 4 4 3 3 3 3 2 2 3 3 4 4 5 5 5 6 7 8 8 8 8 8 7 7 7 7 6 6 6 7 7
9 12 13 6 4 5 7 8 4 6 4 3 4 4 3 1 2 3 2 1 1 2 2 3 4 4 5 4 5 6 7 7 7 7 7 7 7 7 6 5 5 6 6 6
10 11 12 4 2 2 7 9 1 3 5 4 4 6 2 2 3 3 2 0 0 1 2 2 3 3 4 4 4 4 5 6 6 6 6 6 6 5 5 5 5 5 4 5
14 13 10 1 1 4 10 3 2 4 5 5 5 5 3 3 3 2 2 1 1 1 2 2 2 3 3 3 3 3 3 4 5 5 5 5 5 5 5 5 4 4 4 3
11 13 8 3 2 5 4 4 4 5 5 5 4 4 3 3 2 2 2 2 2 2 2 2 2 2 3 2 2 2 3 4 4 4 4 4 4 4 4 4 5 4 3 3
6 5 3 3 4 5 6 6 6 6 5 5 5 4 3 2 2 2 2 2 2 2 3 2 2 2 2 2 2 2 3 3 4 4 4 4 4 4 4 4 4 3 3 3
8 6 4 5 6 5 6 7 7 6 6 6 5 4 3 2 2 2 2 2 3 3 3 2 2 2 1 2 2 3 3 3 3 4 4 4 3 3 3 3 3 3 3 3
10 8 7 6 5 6 6 7 7 6 5 5 4 4 3 2 2 2 2 2 2 3 3 3 2 2 1 2 2 3 3 3 3 4 4 4 3 2 2 1 1 2 2 2
8 6 7 7 7 7 7 7 6 6 5 5 5 5 4 3 3 2 2 2 2 3 3 3 2 2 1 2 3 3 3 3 3 3 3 4 4 4 4 3 4 3 2 0
8 8 8 8 8 7 7 7 6 6 5 5 4 4 4 3 2 2 3 3 3 3 3 3 3 2 2 2 3 3 3 3 3 3 3 4 4 4 4 3 4 4 3 3
6 6 8 8 7 7 7 7 6 5 5 4 4 3 3 3 3 3 3 3 3 3 3 3 3 3 2 2 3 3 3 3 3 3 3 3 4 4 4 4 3 3 4 5
7 7 8 8 7 7 6 5 5 4 4 3 3 2 3 3 3 3 3 2 3 3 3 3 3 3 3 3 3 3 3 3 3 3 3 3 3 3 3 3 3 3 4 5
7 7 7 7 7 6 5 4 4 4 3 2 2 2 3 3 2 2 3 3 4 4 3 3 2 2 3 3 3 3 2 3 2 3 3 3 3 3 3 3 3 3 3 3
7 7 7 7 6 6 5 4 3 3 3 3 3 3 3 3 3 3 3 3 4 4 3 3 2 2 3 3 2 2 2 4 4 3 3 3 3 3 3 3 3 2 2 2
7 7 7 6 5 5 4 3 3 2 2 2 2 3 3 4 4 3 4 4 4 4 3 3 3 3 2 3 2 2 3 3 3 3 3 3 3 3 3 3 3 2 2 3
6 5 5 5 4 3 3 3 2 1 1 1 2 3 3 4 4 3 4 4 4 4 3 3 4 3 3 3 2 2 2 3 3 3 3 3 3 3 3 3 2 2 2 2
3 3 3 2 2 2 2 2 2 1 1 2 2 2 2 3 3 3 3 3 2 2 3 4 4 3 3 3 3 2 3 3 3 3 3 3 3 2 2 2 2 2 2 2
2 2 1 1 1 0 1 2 2 2 2 2 2 2 2 2 2 3 3 2 2 2 3 4 3 2 2 2 3 3 3 3 3 3 3 3 3 3 2 2 2 2 2 2
2 2 1 0 0 0 1 1 2 2 2 2 3 2 2 2 2 2 2 1 2 3 2 3 3 2 2 2 3 3 3 3 2 2 2 2 2 2 2 2 2 2 2 2
2 1 1 0 1 1 1 1 1 1 2 2 2 3 2 1 1 1 1 1 2 3 2 1 3 4 3 4 3 3 3 3 3 3 2 2 2 3 3 3 2 2 2 2
2 1 1 1 1 1 2 1 1 1 2 2 2 2 2 2 1 1 1 3 3 3 1 3 4 3 3 2 2 2 3 2 2 2 2 2 2 2 2 2 2 2 1 1
2 2 1 1 1 1 2 2 2 2 2 2 2 3 3 2 1 1 1 2 3 3 2 4 4 3 2 1 1 2 2 1 1 1 1 1 1 2 2 1 1 1 1 1
1 1 1 1 1 1 2 2 2 2 2 2 2 2 3 2 2 2 2 2 3 2 1 2 2 2 1 1 1 1 1 2 2 1 1 1 1 1 1 1 1 1 1 1
1 1 1 1 1 1 1 2 2 2 2 2 2 2 2 2 2 2 2 2 2 2 1 1 1 2 1 1 1 1 1 1 1 1 1 1 0 0 1 1 1 1 1 1
Wind_Direction
266 273 263 252 248 243 246 257 265 269 272 281 290 287 276 271 261 244 229 217 208 200 193 188 186 186 185 186 187 189 190 191 193 193 193 195 197 200 202 205 210 210 215 219
254 255 257 255 252 247 248 254 261 268 269 295 313 290 266 256 249 241 235 226 220 208 198 198 196 193 185 189 188 189 194 194 192 191 191 195 196 197 201 205 210 209 214 220
255 249 256 246 243 243 243 249 260 266 282 310 293 285 272 263 251 250 247 234 231 225 211 203 200 194 189 191 190 190 194 194 192 193 195 198 199 198 202 206 209 211 215 220
259 251 248 257 300 260 256 256 268 276 288 300 308 302 291 281 275 272 267 250 240 228 209 201 195 185 186 184 191 195 195 193 191 193 197 199 203 205 206 207 209 214 218 220
249 249 253 236 220 248 254 252 267 276 285 300 309 275 240 289 296 272 261 245 250 241 215 184 181 176 175 178 183 192 194 193 193 193 196 198 202 203 204 207 210 217 221 224
240 253 254 241 136 269 262 242 226 278 278 281 273 262 254 308 288 277 258 202 211 193 168 155 160 164 167 169 171 183 189 189 188 190 191 196 199 199 199 203 212 220 221 228
242 247 252 329 356 252 246 274 354 295 279 268 268 296 315 286 271 249 225 184 179 149 138 136 147 155 159 160 169 179 182 176 180 183 184 191 190 195 197 200 202 212 212 215
239 244 242 59 278 264 313 332 306 299 292 284 288 292 279 271 245 214 197 175 167 146 134 133 147 156 157 153 150 159 168 172 179 185 189 181 178 188 194 194 194 196 191 202
248 264 359 336 301 308 303 294 294 293 290 275 272 269 263 257 233 213 190 177 184 165 147 150 162 170 167 150 157 160 161 166 172 179 184 186 186 184 191 198 202 189 191 195
262 255 280 291 294 297 300 299 294 287 280 269 264 260 256 247 231 202 188 185 188 172 161 160 163 165 171 161 157 154 156 166 169 170 175 175 185 188 199 199 198 196 196 194
258 269 276 269 286 292 299 297 294 287 279 268 259 259 255 235 231 216 193 194 190 177 170 169 163 157 170 162 163 162 162 172 175 169 167 166 167 165 194 172 185 206 200 190
269 286 284 291 302 298 294 292 291 286 282 273 260 256 244 228 224 215 207 201 188 172 163 155 148 153 169 170 170 171 171 179 182 174 167 169 162 146 81 87 90 87 60 207
284 291 289 287 287 290 288 285 286 282 276 274 268 256 237 221 216 210 201 197 186 172 163 160 155 162 165 165 170 176 179 184 185 177 170 173 172 169 151 117 94 91 98 106
272 276 273 272 279 284 280 281 284 282 277 274 268 250 229 212 205 210 213 201 183 167 165 165 162 161 158 157 168 176 179 175 185 178 175 171 173 173 168 160 149 135 123 132
267 271 274 280 279 279 276 271 268 266 266 262 235 227 220 214 207 206 204 194 177 171 168 167 164 162 165 164 165 174 177 170 169 164 168 171 173 171 168 164 160 153 146 139
276 271 270 269 270 274 271 264 260 263 264 241 224 216 212 205 196 190 191 185 181 180 173 167 158 154 161 163 160 162 148 122 150 165 166 166 174 174 171 171 173 171 174 162
267 263 266 271 270 267 263 263 264 265 247 231 217 207 193 182 183 182 182 181 177 174 173 167 158 152 166 171 174 161 149 140 156 173 168 166 167 172 173 174 175 175 170 135
264 267 273 274 274 272 268 268 257 237 238 223 193 187 184 185 187 179 176 174 165 165 165 164 154 154 168 182 180 167 165 160 161 160 158 159 165 172 175 172 174 178 166 152
274 280 280 279 275 273 274 269 252 235 217 198 190 190 189 184 179 177 173 170 168 169 166 152 140 171 180 177 177 184 173 159 150 145 145 142 180 182 178 181 182 182 181 180
286 284 289 294 281 262 247 243 237 211 207 202 182 172 173 173 170 164 162 169 182 171 149 147 162 182 186 165 181 187 181 176 167 164 167 177 181 181 182 181 187 191 196 198
317 313 317 314 323 233 215 210 205 203 196 181 162 160 164 162 164 167 172 180 155 140 142 145 179 185 179 146 185 197 182 180 182 190 187 188 181 178 182 190 200 205 202 203
322 309 301 324 41 158 180 194 193 190 173 165 162 163 159 159 166 176 182 186 119 116 173 182 181 135 127 165 198 195 179 173 183 193 193 192 191 189 193 198 205 208 199 195
307 301 298 262 216 217 217 205 185 175 170 166 167 170 172 174 180 176 164 132 134 129 193 160 107 121 165 200 193 193 188 187 193 198 201 202 211 208 198 200 198 196 195 200
302 296 282 257 223 202 209 202 184 179 181 179 173 178 182 175 176 196 148 110 110 130 154 101 114 149 209 212 193 198 199 196 199 209 213 210 209 205 197 189 191 195 198 206
295 287 277 264 244 222 203 200 185 177 187 177 155 156 168 173 179 158 115 117 125 146 140 116 136 173 204 203 201 199 199 193 216 234 212 206 197 178 179 176 177 184 183 191
258 247 240 261 274 247 207 195 183 166 162 159 159 161 157 152 153 150 149 150 152 158 168 141 142 163 158 142 160 183 190 167 166 173 192 196 169 143 128 134 162 174 166 169
224 201 213 227 221 222 199 182 172 168 164 156 155 151 144 141 142 142 143 144 146 150 139 127 132 132 134 145 152 163 160 142 133 149 162 167 171 163 168 174 175 187 194 189